Presure
219 187 238 282 270 255 253 228 218 234 223 225 114 192 218 206 209 243 258 241 208 208 220 210 200 193 185 172 174 174 167 158 165 166 154 168 171 178 174 181 168 165 168 166 172
150 166 207 210 143 204 256 250 243 223 233 217 219 218 224 225 203 202 230 254 273 230 204 205 216 214 199 189 183 170 174 168 172 160 174 158 168 175 168 174 183 184 198 193 185
241 234 285 256 292 276 264 257 248 239 245 228 229 215 222 210 222 201 201 220 236 261 277 208 209 206 217 196 190 183 177 174 183 163 161 171 156 161 181 181 172 171 182 189 182
310 162 325 271 314 234 286 265 245 251 235 238 227 212 221 202 214 220 202 199 208 225 252 270 250 220 212 197 196 189 189 191 168 186 175 174 176 157 165 167 179 186 177 171 182
337 137 210 231 270 314 269 283 259 255 244 248 233 224 222 203 214 227 216 211 195 201 217 241 264 272 225 220 217 205 200 203 181 170 170 181 182 174 161 161 178 186 186 187 174
241 200 197 331 146 288 306 288 278 248 258 251 239 232 228 210 210 214 227 213 213 196 194 213 236 266 304 234 220 206 207 209 195 179 172 169 170 176 168 175 174 180 183 186 171
141 138 326 324 320 326 315 310 284 272 254 258 234 243 224 217 224 203 222 214 211 209 199 193 216 242 221 277 239 233 209 203 200 186 186 182 177 172 181 175 184 182 202 171 195
145 149 307 286 352 349 328 309 268 275 257 260 271 233 215 229 214 210 204 212 203 212 205 197 192 215 242 270 237 232 235 231 228 214 210 212 214 203 197 200 198 198 188 181 227
163 198 331 347 315 285 303 323 292 291 266 258 273 257 241 231 219 218 205 206 212 205 207 202 198 190 217 247 263 229 222 226 224 224 222 215 214 203 201 203 197 192 194 218 214
135 355 294 315 312 302 297 315 302 301 280 260 264 254 235 232 240 212 206 212 208 216 200 208 198 202 188 227 251 247 219 217 220 222 217 208 197 202 195 195 200 196 215 209 181
325 221 299 300 296 295 289 298 302 297 297 277 265 256 243 234 224 232 234 207 210 204 219 200 202 193 197 199 231 211 228 220 219 216 210 207 203 197 190 189 218 217 204 215 207
290 304 308 303 303 300 302 286 277 291 298 301 280 261 272 241 235 226 227 225 223 211 201 219 208 199 198 189 212 235 239 232 215 210 203 204 206 206 209 210 216 208 210 201 197
321 325 309 289 290 278 274 270 263 256 263 298 296 290 263 269 230 228 224 236 235 230 220 215 205 202 200 201 186 230 234 238 224 208 203 202 207 207 212 205 207 206 198 195 201
308 256 296 293 282 277 284 282 270 264 265 262 265 257 279 264 263 229 218 222 227 229 220 206 218 200 199 194 194 200 230 232 219 213 212 208 208 210 204 206 206 196 197 197 192
319 305 309 302 532 529 511 519 445 369 294 270 213 203 252 272 254 254 230 222 221 224 218 213 218 207 204 199 198 187 214 232 217 220 217 215 216 203 204 202 195 201 193 191 183
316 317 351 497 487 486 483 488 421 415 433 449 323 264 250 265 255 259 251 234 229 225 225 219 206 222 204 204 198 202 197 231 224 213 218 211 203 201 195 194 198 188 188 186 186
318 357 499 479 470 471 472 433 399 398 406 420 438 442 291 254 263 251 249 247 247 229 219 220 212 216 209 205 203 196 196 211 227 216 212 202 200 172 197 190 197 181 182 182 186
335 498 472 465 466 464 460 422 402 385 381 394 403 418 397 389 261 260 256 245 244 251 246 230 220 210 217 207 201 195 193 195 224 213 203 191 199 185 186 193 191 185 180 186 185
487 471 464 458 454 453 438 413 388 387 371 381 378 397 383 388 401 264 257 255 241 240 241 242 220 216 214 214 206 201 197 200 193 213 204 193 193 187 188 195 186 184 180 187 186
473 459 459 460 447 454 415 404 390 394 374 350 356 361 386 365 390 413 264 248 244 243 243 247 245 226 218 224 213 210 203 200 194 218 208 198 193 188 187 192 185 184 181 183 181
460 453 447 441 445 445 422 402 378 376 376 365 370 366 355 364 367 374 385 260 248 246 246 251 258 237 232 222 224 209 207 199 200 199 212 198 189 191 188 188 185 183 182 184 181
450 438 442 438 436 422 431 421 409 365 359 341 331 369 337 343 345 359 369 369 264 248 242 244 244 256 234 236 230 218 212 207 201 191 211 199 192 192 187 191 193 184 186 184 182
441 434 433 432 424 422 416 401 409 367 361 343 328 332 348 345 349 345 356 378 391 286 240 236 246 250 257 256 247 233 212 211 197 199 185 207 192 192 190 194 194 187 186 186 179
447 436 424 437 410 380 384 399 417 367 369 363 341 329 339 343 343 352 343 350 366 375 257 244 247 244 239 263 252 235 224 213 209 202 191 185 190 193 190 194 191 194 189 183 184
448 435 434 407 391 376 391 384 387 373 357 356 353 333 330 349 325 329 327 361 354 360 357 259 248 245 238 253 252 239 231 218 217 201 200 192 191 186 190 195 193 193 192 182 183
450 446 433 399 371 381 382 382 430 377 360 340 318 333 342 343 334 331 332 360 339 336 342 371 264 245 236 239 250 245 235 234 222 215 204 190 192 192 188 182 188 190 196 190 183
457 436 410 373 373 387 375 402 395 378 359 333 329 332 340 334 324 338 341 324 318 323 347 346 363 381 242 240 229 249 245 229 230 219 204 195 192 194 188 185 184 177 184 188 190
Wind_Speed
64 63 52 44 44 44 47 42 45 49 48 50 45 47 52 54 54 49 52 67 76 78 83 90 91 91 86 82 83 82 79 79 79 78 66 76 74 74 72 76 74 71 73 71 72
65 66 53 52 59 47 50 49 53 49 55 49 54 52 49 52 59 57 55 48 46 79 78 80 84 90 92 90 87 81 85 87 84 72 79 72 76 76 75 74 73 74 71 73 72
67 60 49 48 52 55 53 54 53 57 59 58 58 57 55 58 56 62 61 60 54 48 53 81 85 85 85 91 91 88 88 88 88 76 70 80 69 69 76 76 76 71 69 68 70
58 73 54 48 57 52 62 57 54 58 61 62 62 58 62 61 59 59 65 64 64 59 48 52 72 88 86 89 91 92 91 91 79 85 84 82 81 70 73 73 75 75 72 71 68
61 73 65 62 58 62 57 64 61 61 64 67 66 63 66 59 64 56 63 66 67 65 64 51 51 59 81 84 84 86 88 89 84 81 79 84 84 80 73 72 76 73 74 73 69
68 74 73 63 47 51 64 64 64 62 65 69 71 70 65 68 66 63 61 66 66 69 66 66 52 49 50 73 80 83 80 82 89 87 80 78 80 82 77 78 73 75 73 72 68
77 76 59 58 56 60 64 63 64 65 66 69 71 73 74 74 72 66 63 66 69 68 71 68 63 48 64 58 70 77 81 85 88 88 88 89 86 84 83 79 82 77 77 69 72
82 80 62 53 60 59 61 64 60 66 69 68 63 72 70 84 74 76 70 70 70 70 71 71 69 61 48 48 65 68 70 73 77 82 83 79 78 83 80 79 78 75 75 71 58
88 73 56 58 53 49 52 62 64 68 70 71 65 71 75 86 85 82 76 76 71 72 73 70 70 67 58 46 53 64 66 70 73 72 69 68 71 73 71 71 71 70 70 62 61
81 59 58 49 50 51 50 60 62 71 72 73 72 75 81 85 86 83 78 80 79 72 72 72 70 68 67 51 50 60 71 72 71 69 66 66 73 68 69 69 67 68 62 61 58
56 79 60 58 59 57 58 53 64 68 76 79 79 82 83 86 86 88 92 81 84 80 69 76 71 67 75 72 58 68 67 69 68 64 62 66 69 70 69 66 60 59 62 55 57
83 66 63 64 62 64 64 65 68 68 71 78 81 80 82 90 89 91 91 93 92 87 83 74 70 77 75 75 62 59 63 65 66 64 64 64 66 63 61 61 57 58 56 58 59
72 66 66 71 69 71 71 72 74 76 69 71 79 81 88 87 94 93 92 91 93 90 86 79 79 79 77 74 72 58 62 64 66 66 65 64 63 58 60 58 56 56 56 58 57
77 78 77 78 76 78 80 84 85 86 84 73 68 64 86 94 96 99 93 95 92 91 92 84 80 79 77 75 73 66 63 68 68 68 65 63 61 58 57 57 55 55 57 57 55
81 86 85 79 27 24 27 23 42 65 92 78 62 55 79 93 91 100 104 100 97 95 93 89 82 87 81 83 78 75 67 71 71 67 62 58 58 57 56 57 56 55 57 56 55
91 92 76 30 30 26 27 24 38 42 48 49 78 88 81 90 94 100 105 105 103 100 97 93 86 86 83 86 80 76 75 73 70 66 60 61 55 58 59 60 56 56 57 55 54
97 81 27 24 23 25 23 30 42 45 46 38 35 37 96 93 96 103 105 104 105 104 97 98 95 87 90 88 84 77 77 72 72 66 59 63 57 66 60 61 58 57 57 55 53
93 26 26 27 24 22 21 28 27 35 36 29 29 27 46 52 99 102 110 107 106 104 104 103 101 96 92 91 87 85 81 74 74 68 66 68 57 67 63 62 60 57 56 55 53
24 27 23 26 21 19 32 33 36 38 31 21 28 24 33 41 41 105 105 109 106 104 103 104 102 101 97 101 96 90 84 77 71 75 72 69 62 69 65 63 60 58 57 57 54
24 24 23 22 21 19 34 35 36 34 40 40 35 33 25 38 29 31 107 103 105 106 105 104 106 104 103 102 100 95 91 86 76 75 73 69 65 69 68 66 62 58 58 58 55
25 20 22 19 16 15 37 38 29 37 38 39 25 30 33 32 35 39 41 107 106 108 108 105 105 106 106 102 102 97 93 81 77 70 74 71 68 72 71 68 63 60 60 60 58
22 21 18 13 11 13 23 45 31 41 38 35 36 28 36 37 41 34 36 51 109 108 106 105 103 106 104 106 106 103 97 94 83 73 76 75 75 77 75 71 67 65 62 61 58
22 18 16 11 7 9 17 27 38 41 41 35 36 29 25 36 38 40 35 36 42 99 105 101 105 104 106 102 109 105 94 95 83 79 67 76 73 77 74 72 69 65 63 62 55
19 12 14 7 14 15 15 11 32 43 40 40 40 40 32 33 32 34 37 39 38 44 112 107 104 100 93 91 101 101 98 91 90 78 72 67 78 81 79 76 72 68 64 61 62
16 12 8 13 12 11 13 14 23 43 38 41 41 35 35 34 39 36 43 33 36 39 50 115 103 100 96 98 105 105 105 99 96 86 79 80 80 81 81 78 70 67 67 63 61
13 9 11 11 8 11 12 15 15 45 41 33 32 32 36 39 41 41 38 32 35 43 50 46 111 103 98 96 103 106 103 101 93 91 80 78 81 84 78 64 68 69 71 64 58
9 3 8 7 8 6 10 15 25 39 37 33 33 34 34 34 35 35 37 43 46 44 37 48 46 48 103 98 94 104 99 91 94 91 87 78 88 92 81 74 71 62 61 61 64
Wind_Direction
336 328 323 276 272 269 261 278 261 254 257 257 265 256 242 245 242 239 235 237 236 235 237 235 234 235 233 234 232 232 235 238 239 240 241 242 242 244 246 247 246 246 248 248 249
339 334 318 312 329 302 261 254 254 252 250 253 253 250 247 245 244 240 241 237 241 237 237 236 237 237 234 233 233 234 232 234 237 240 240 242 244 245 246 247 248 249 251 252 251
332 322 302 309 270 265 256 254 250 250 244 245 248 249 250 245 243 242 241 241 239 239 241 237 239 235 238 234 234 233 234 234 235 240 243 242 243 245 247 248 248 249 251 251 249
302 326 280 301 270 291 257 252 250 246 247 242 243 248 247 249 243 242 240 241 241 239 240 239 236 239 239 234 235 235 236 234 239 236 239 243 244 244 246 248 251 251 250 248 252
297 332 320 307 289 264 267 253 249 245 242 241 240 243 243 249 245 246 240 239 241 241 240 240 240 238 237 238 239 236 237 238 237 240 241 241 243 245 246 246 251 253 252 251 250
321 320 319 279 300 279 258 255 252 248 242 239 238 237 241 243 243 246 242 239 240 239 240 240 239 240 237 235 236 235 236 236 235 238 241 243 244 244 246 249 252 253 252 251 252
331 330 292 283 276 271 262 258 253 245 243 240 239 239 240 240 243 242 246 240 238 238 238 239 239 240 236 233 235 236 237 237 237 239 241 242 244 245 247 250 252 254 257 250 256
331 328 295 294 277 272 262 258 254 245 243 242 235 235 239 243 238 238 241 240 238 236 237 236 237 237 239 236 234 234 235 238 239 239 241 242 244 244 246 248 251 254 254 254 258
324 318 291 283 288 291 269 254 250 246 243 240 235 234 232 236 239 238 238 240 238 236 234 236 236 236 236 239 233 233 233 234 235 235 236 237 240 241 244 247 249 252 254 255 255
325 298 309 285 275 275 273 253 252 244 241 238 237 233 233 235 235 238 238 235 237 238 234 234 234 236 235 240 234 229 229 230 232 233 233 235 240 239 242 245 250 251 251 252 250
305 318 306 295 290 278 279 260 250 246 242 236 234 233 234 234 235 236 236 237 236 238 235 231 232 231 233 232 232 231 230 230 231 231 232 234 237 239 242 244 239 242 249 243 246
321 310 298 292 284 280 271 268 266 252 240 241 236 235 232 234 233 235 236 235 234 234 236 231 227 232 232 231 234 232 231 231 231 230 231 233 236 237 237 237 235 241 240 245 248
312 302 299 302 294 292 286 279 276 275 266 239 237 234 235 230 233 234 236 236 236 232 229 229 227 228 231 233 231 233 230 226 227 229 229 231 234 233 233 235 235 235 241 244 246
312 313 308 303 303 297 285 275 270 267 265 259 246 233 232 233 227 231 235 235 236 234 232 230 226 227 230 230 230 232 232 224 224 226 226 228 229 227 231 232 231 236 239 242 247
315 314 309 310 286 269 261 235 262 260 259 255 251 240 233 232 227 228 230 232 233 232 230 229 225 225 224 228 227 226 229 220 223 222 221 224 222 226 229 232 232 234 238 242 248
319 317 315 286 281 262 242 212 236 246 253 257 241 243 237 230 229 228 230 230 229 231 231 230 229 224 225 227 227 227 227 222 220 222 218 221 220 229 228 232 232 235 240 243 247
322 320 290 280 265 258 229 211 241 238 250 254 258 255 231 232 225 226 229 229 230 230 228 230 229 226 224 226 228 226 227 226 220 220 213 222 220 233 228 233 233 236 239 245 247
325 294 284 275 261 245 209 202 223 243 243 245 240 236 236 230 227 223 225 226 227 228 228 227 227 226 223 225 226 226 226 224 223 219 216 228 218 229 231 230 233 238 242 244 245
308 296 279 275 262 243 186 209 226 224 234 237 232 226 229 230 224 222 222 223 225 227 225 226 224 226 225 220 222 226 226 225 222 219 217 224 220 227 232 233 231 235 242 246 249
304 299 287 276 262 235 209 220 222 211 208 232 230 227 206 222 218 220 221 220 224 226 227 225 223 224 224 222 223 222 225 223 220 220 218 221 224 228 232 233 234 233 238 243 248
309 304 297 285 263 243 204 221 223 212 213 211 216 211 210 212 219 217 217 219 220 223 225 224 222 222 224 224 221 222 225 227 224 222 221 221 226 229 232 233 235 236 237 240 244
311 309 304 289 249 234 216 215 216 207 221 219 218 211 212 211 212 209 213 215 219 220 224 225 225 221 224 222 222 220 220 224 221 218 219 220 224 228 232 234 233 236 238 241 244
320 301 295 281 227 205 219 208 206 206 214 205 217 208 203 208 213 215 215 213 213 218 221 224 224 225 224 221 219 219 221 222 222 222 220 221 227 231 235 236 235 235 238 242 246
310 301 298 240 186 227 201 220 213 207 210 198 201 209 201 203 205 211 212 210 209 215 219 223 224 224 226 221 218 221 221 223 224 222 222 221 225 230 235 235 236 237 237 240 245
301 305 277 213 231 247 228 212 218 198 203 192 196 205 203 186 197 206 207 201 203 208 214 220 223 223 223 220 217 218 219 220 220 220 221 223 225 230 233 235 237 239 240 238 243
317 299 219 227 274 271 267 264 246 199 194 193 203 202 199 187 191 196 192 190 196 211 216 217 219 221 222 223 219 219 221 221 221 222 222 225 228 232 234 233 238 240 243 243 243
358 282 206 258 222 206 213 233 189 196 198 193 199 197 189 193 193 188 184 188 197 209 216 212 211 217 220 221 222 221 222 223 223 223 223 222 229 231 231 230 233 230 238 243 247